Find Starlink 4162

NORAD ID: 53288 Int'l Des: 2022-086 Owner: SPXS Country: US Constellation: starlink operational
LEOCIRCULAR

Current View

Loading 3D Globe...

About Starlink 4162

Description loading...

Upcoming Passes

Passes for default location (London). Set your location on the main map for personalized predictions.

Altitude History

Loading altitude history...

Two-Line Element Set

1 53288U 22086AY 26149.47559176 .00000194 00000-0 30299-4 0 9991
2 53288 53.1993 181.4543 0001337 93.6466 266.4679 15.08842928213386
Epoch: May 29, 2026 • Age: 20 hours

Current Status

Altitude 540.0 km
Velocity 7.60 km/s
Sub-Earth Point 23.19°N, 15.98°W
Launch Date Jul 24, 2022
Age 3.8 years
Type internet

Technical Details

Classification Payload
Mass 297.00 kg
Dry Mass 275.00 kg
Total Mass 297.00 kg
Length 0.20 m
Diameter 2.80 m
Span 9.00 m
Shape Box + pan
Manufacturer SPXS
Bus Type Starlink
Phase Status In Orbit
Owner/State SPXS/US

Most Searched